Location: Kitchener
(43.4500°N, 80.5000°W)
Time: 10:20:51
(UTC-05:00)

Tiangong 2 - Visible Passes

Search period start: 21 February 2018 00:00
Search period end: 03 March 2018 00:00
Orbit: 384 x 388 km, 42.8° (Epoch: 21 February)

Date Brightness Start Highest point End Pass type
(mag) Time Alt. Az. Time Alt. Az. Time Alt. Az.
21 Feb 2.6 19:00:12 10° W 19:03:05 32° SSW 19:05:47 11° SE visible
22 Feb 3.9 19:38:58 10° WSW 19:40:29 13° SSW 19:42:01 10° S visible
23 Feb 3.5 18:39:16 10° W 18:41:43 20° SSW 18:44:10 10° SSE visible
